アトラス彗星

C/2022 R2 ( ATLAS )

English version
Home page
Updated on November 26, 2022

---------------------------------------------------------------------

・ プロフィール

発見日 2022年9月14日
発見光度 17.6等
発見者 Asteroid Terrestrial-Impact Last Alert System (ATLAS) search program

・ 写真集

・ 軌道要素

Epoch 2022 Aug. 9.0 TT = JDT 2459800.5
T 2022 Oct. 25.21958 TT                                 Rudenko
q   0.6325956            (2000.0)            P               Q
z  +0.0023817      Peri.   78.37564     -0.41430282     -0.58945573
 +/-0.0000470      Node    60.40367     +0.11778126     -0.79025111
e   0.9984933      Incl.   52.89405     +0.90248587     -0.16746678
>From 292 observations 2022 Sept. 14-Oct. 30, mean residual 0".7.

・ 星図

・ 光度変化

        m1 = 15.0 + 5 logΔ + 10.0 log r

---------------------------------------------------------------------

軌道要素はM.P.E.C. 2022-V125に掲載されたものです。
星図はステラナビゲータ Ver.10 (アストロアーツ) で作成したものです。
光度グラフはComet for Windowsで作成したものです。

---------------------------------------------------------------------

Copyright(C) Seiichi Yoshida (comet@aerith.net). All rights reserved.